ONEWEB-0180 (48213 NORAD) Tracking and Keplerian Element Data

This shows tracking and keplerian element data for the satellite.

Feedback or suggestion? Click here.




ElementValue
Catalog48213
NameONEWEB-0180
Epoch Orbit180
Epoch Day136.75001157
Epoch Year2021
RAAN305.8119
Inclination87.4156
Eccentricity0.0006753
Argument of Perigee178.4884
Mean Anonmoly62.5049
Mean Motion15.20377416
Decay Rate-0.01377536
L11 48213U 21031D 21136.75001157 -.01377536 00000-0 -69776-1 0 9994
L22 48213 87.4156 305.8119 0006753 178.4884 62.5049 15.20377416 1800

Live tracking and technical data element details for ONEWEB-0180 (NORAD 48213). ONEWEB-0180 can be tracked NOW for your location showing map with azimuth and elevation plus other details from your city location.

Track the satellite on the map from your city or location and see movement details for azimuth, elevation, latitude, longitude, range, height, and movement on the map or in text.







IsCatalogInMostPopularTable: catalog: 48213, numindb: 7
Update: records affected: 1



GetName: 48213 ONEWEB-0180

Hit Count: updated at: Mon, 17 May 2021 15:08:50 GMT